Location: Fölziehausen
(51.9914°N, 9.6518°E)
Time: 06:39:24
(UTC+00:00)

Daily predictions for brighter satellites

Satellite Brightness Start Highest point End
(mag) Time Altitude Azimuth Time Altitude Azimuth Time Altitude Azimuth
IRAS Rocket 4.3 20:21:40 10° NNE 20:27:20 77° ESE 20:32:55 10° SSW
USA 32 4.2 20:27:23 10° S 20:32:31 62° E 20:37:41 10° NNE
Ariane Rocket 4.0 20:33:18 10° S 20:38:09 44° W 20:43:03 10° NNW
Cosmos 1954 Rocket 4.2 20:32:55 10° NNW 20:38:14 76° WSW 20:43:27 10° SSE
Cosmos 1656 3.8 20:35:21 10° NNW 20:40:48 66° NE 20:46:16 10° SE
CZ-2C R/B 4.2 20:38:02 10° NNE 20:42:28 44° E 20:46:48 10° S
USA 267 3.8 20:37:06 10° ENE 20:42:57 34° SE 20:48:46 10° SSW
NOSS 2-1 (C) 4.0 20:39:57 10° NW 20:44:13 75° SW 20:50:14 10° SE
Meteor 1-24 Rocket 3.6 20:39:10 10° S 20:44:29 84° E 20:49:57 10° NNE
Cosmos 1850 Rocket 4.4 20:40:38 10° NNW 20:45:46 53° ENE 20:50:51 10° SE
Cosmos 2315 Rocket 4.3 20:46:42 10° SSW 20:53:02 77° W 20:59:22 10° N
Helios 1A Rocket 3.2 20:50:14 10° S 20:54:16 68° WSW 20:58:23 10° NNW
NOSS 2-1 (D) 4.1 20:50:16 10° NW 20:54:35 65° SW 21:00:34 10° SSE
Cosmos 1833 Rocket 3.9 20:53:38 10° SSE 20:57:59 24° ESE 21:02:21 10° NE
SL-8 R/B 3.8 20:53:36 10° W 20:58:20 57° S 21:03:03 10° ESE
ARIANE 5 R/B 2.7 20:55:13 10° SSE 20:59:40 74° ENE 21:04:07 10° NNW
ATLAS 5 CENTAUR R/B 4.4 20:49:52 10° NW 21:02:21 35° WSW 21:06:40 10° S
SPOT 5 3.1 20:58:57 10° S 21:03:19 56° WSW 21:07:37 10° NNW
Cosmos 1025 Rocket 3.9 21:01:11 10° SSW 21:05:19 50° WNW 21:09:32 10° N
Lacrosse 5 rocket 2.6 21:02:49 10° WNW 21:06:06 26° SW 21:09:19 11° S
Cosmos 2074 Rocket 4.1 21:01:47 10° N 21:08:07 85° E 21:14:23 10° S
Spot 2 Rocket 4.1 21:04:05 10° S 21:09:04 54° W 21:14:05 10° NNW
Lacrosse 4 Rocket 4.3 21:07:05 10° W 21:10:17 21° NW 21:13:28 10° NNE
RESURS DK-1 2.6 21:07:47 10° NNW 21:11:56 66° NE 21:15:36 13° SE
Cosmos 1452 Rocket 3.8 21:09:07 10° S 21:14:09 48° ESE 21:19:12 10° NE
Cosmos 1271 Rocket 3.8 21:10:29 10° NNW 21:14:17 43° W 21:18:03 10° SSW
Tiangong 3.3 21:13:34 10° SSW 21:14:40 11° S 21:15:07 11° S
ATLAS 2AS CENTAUR R/B 3.2 21:08:34 10° NW 21:15:26 51° WSW 21:21:29 12° SSE
Cosmos 2082 Rocket 3.9 21:15:46 10° SE 21:18:50 16° E 21:22:04 10° ENE
USA 234 3.3 21:12:50 10° ESE 21:19:25 86° SSW 21:26:01 10° WNW
Cosmos 1607 4.1 21:19:50 10° SW 21:26:06 83° NW 21:32:19 10° NE
Lacrosse 5 2.7 21:23:53 10° WNW 21:28:35 37° SW 21:32:24 14° SSE
Nadezhda 1 Rocket 4.1 21:22:54 11° S 21:28:46 62° E 21:34:45 10° NNE
Cosmos 2154 Rocket 4.0 21:25:16 10° N 21:31:33 89° E 21:37:10 13° S
Cosmos 1536 Rocket 3.7 21:27:18 10° SSW 21:31:37 76° W 21:36:00 10° N
USA 276 2.6 21:32:09 10° SW 21:34:54 33° SSE 21:37:39 10° E
Cosmos 2228 3.1 21:32:21 10° NNW 21:36:36 74° W 21:40:08 14° S
Cosmos 1606 Rocket 3.5 21:32:32 10° N 21:36:53 76° E 21:40:15 16° SSE
Cosmos 2344 4.2 21:28:45 10° NW 21:37:18 86° NE 21:49:10 10° SE
Terra 2.8 21:33:57 10° SSW 21:38:27 41° W 21:42:59 10° NNW
FALCON 9 DEB 3.2 21:35:56 10° W 21:39:12 74° N 21:42:29 10° E
SJ 16-02 4.0 21:40:40 10° NNE 21:42:24 12° NE 21:44:08 10° ENE
Cosmos 1825 4.3 21:44:54 11° ESE 21:46:44 15° E 21:48:54 10° NE
Cosmos 1900 4.5 21:41:45 10° NW 21:46:58 85° NE 21:51:13 15° SE
ERS-1 Rocket 4.5 21:44:52 10° SSW 21:49:15 29° W 21:53:40 10° NNW
Cosmos 1455 4.5 21:46:52 10° NW 21:49:35 19° W 21:52:17 10° SW
Cosmos 2084 Rocket 3.6 21:48:44 10° NW 21:52:34 62° NE 21:56:07 13° ESE
Cosmos 2084 3.9 21:50:02 10° WSW 21:53:49 56° NW 21:57:41 10° NE
COSMOS 2406 3.9 21:49:46 16° SSE 21:53:50 37° ESE 21:59:05 10° NE
X-37B 2.1 21:51:44 10° SW 21:53:00 17° SSW 21:53:00 17° SSW
Cosmos 2369 3.9 21:50:53 10° NNW 21:56:38 72° ENE 22:01:22 16° SE
TSX-5 4.4 21:53:34 10° SSW 21:58:06 90° WSW 22:04:05 10° NE
SL-16 R/B 3.9 21:53:48 10° NNW 21:58:41 28° NE 22:03:33 10° E
Cosmos 1726 Rocket 3.5 21:57:45 10° NNW 22:02:05 80° W 22:05:09 19° S
Cosmos 968 Rocket 3.6 21:58:26 10° NNW 22:03:39 72° ENE 22:07:37 18° SE
SL-8 Rocket 4.2 21:57:59 10° N 22:04:15 67° ENE 22:09:01 18° SSE
Cosmos 1703 4.4 22:03:46 10° SW 22:07:24 40° WNW 22:11:05 10° N
Cosmos 1980 Rocket 2.3 22:01:57 10° NNW 22:07:41 77° ENE 22:12:13 17° SE
Spot 4 3.9 22:06:05 19° SSE 22:09:31 75° ENE 22:14:20 10° NNW
Meteor 1-11 4.4 22:05:47 18° S 22:09:58 58° E 22:15:27 10° NNE
Cosmos 1697 Rocket 2.9 22:05:06 10° NW 22:10:39 60° WSW 22:14:40 19° S
Cosmos 2218 Rocket 4.2 22:07:45 10° N 22:14:09 67° ENE 22:19:02 18° SSE
ALOS 2 3.0 22:11:52 18° SE 22:14:55 54° ENE 22:19:13 10° N
Cosmos 1328 3.9 22:12:23 16° SSW 22:15:32 73° WNW 22:19:33 10° N
Cosmos 1892 3.0 22:13:39 23° SSE 22:15:41 48° E 22:19:20 10° NNE
Cosmos 2366 rocket 4.1 22:13:07 10° N 22:19:26 72° ENE 22:24:11 19° SSE
Cosmos 2341 Rocket 4.1 22:14:26 10° NNW 22:20:49 84° W 22:25:37 18° S
ASTEX 1 3.7 22:20:46 10° N 22:25:45 66° W 22:29:51 15° SSW
Cosmos 1633 4.4 22:24:46 15° ESE 22:26:11 18° E 22:28:40 10° NE
USA 267 3.2 22:19:57 10° ENE 22:26:33 84° SSE 22:33:07 10° WSW
ADEOS Rocket 3.6 22:23:16 17° SSE 22:29:01 75° ENE 22:36:42 10° NNW
Cosmos 1486 Rocket 4.4 22:25:53 10° NNW 22:31:02 59° ENE 22:35:07 16° SE
Cosmos 2058 Rocket 3.2 22:28:59 10° NNW 22:33:21 66° W 22:36:09 22° S
Cosmos 2322 Rocket 3.5 22:33:33 10° NNW 22:38:46 36° NE 22:43:59 10° ESE
Cosmos 1892 Rocket 3.9 22:36:30 17° SSW 22:39:51 63° WNW 22:44:14 10° N
SL-8 R/B 4.3 22:36:02 10° W 22:40:25 36° SSW 22:42:54 21° SSE
Cosmos 1833 Rocket 2.9 22:35:47 10° SW 22:41:23 72° WNW 22:47:02 10° NNE
Cosmos 2278 3.8 22:36:01 10° NNW 22:41:47 83° ENE 22:46:07 18° SSE
H-2A R/B 3.6 22:38:36 10° NNE 22:42:47 63° ESE 22:45:11 24° S
Cosmos 1959 Rocket 4.5 22:38:59 10° NNW 22:45:07 82° W 22:49:27 20° S
GP-B 3.9 22:42:24 10° N 22:46:39 45° W 22:49:54 16° SSW
Cosmos 1408 2.8 22:45:59 22° SSW 22:48:01 58° WNW 22:51:26 10° N
Cosmos 807 4.4 22:45:38 10° N 22:49:12 67° ENE 22:50:35 30° SSE
RESURS DK-1 4.4 22:46:42 10° WNW 22:49:27 17° WSW 22:51:26 13° SW
ATLAS 5 CENTAUR R/B 2.9 22:50:40 17° SE 22:51:16 18° ESE 22:54:03 10° ENE
Aureole 1 Rocket 4.4 22:46:52 10° NNW 22:53:30 79° ENE 23:00:09 16° SSE
Cosmos-2242 3.5 22:49:35 10° N 22:53:45 50° ENE 22:56:21 21° SE
Cosmos 1626 Rocket 3.5 22:54:02 25° S 22:56:30 72° E 23:00:51 10° NNE
Cosmos 2181 Rocket 4.0 22:52:47 19° SSW 22:57:25 84° W 23:03:41 10° N
Cosmos 1867 3.6 22:53:27 10° NW 22:58:53 66° SW 23:02:32 21° SSE
Cosmos 2082 Rocket 2.2 22:57:35 17° SSW 23:02:00 79° ESE 23:07:44 10° NNE
USA 234 4.0 22:59:13 20° S 23:02:58 35° SW 23:08:55 10° WNW
Cosmos 1503 Rocket 4.2 23:02:28 10° NNW 23:07:49 71° ENE 23:11:50 18° SE
Okean 1-7 Rocket 3.7 23:06:13 23° SSW 23:09:00 76° W 23:13:30 10° N
USA 276 1.9 23:07:22 10° W 23:10:20 59° S 23:13:18 10° E
Cosmos 1302 Rocket 4.3 23:09:21 14° SW 23:13:46 67° WNW 23:18:59 10° NNE
FALCON 9 DEB 2.9 23:12:17 10° WNW 23:15:33 86° SSW 23:18:51 10° ESE
Cosmos 2058 4.1 23:14:21 20° SE 23:16:35 32° E 23:20:20 10° NNE
Cosmos 1821 Rocket 4.0 23:10:18 10° N 23:16:39 90° NW 23:20:59 21° S
Cosmos 2360 Rocket 3.2 23:13:40 10° NNW 23:19:06 44° NE 23:24:31 10° ESE
Cosmos 1825 2.6 23:19:32 23° SW 23:21:38 54° WNW 23:25:21 10° N
SJ 16-02 1.8 23:17:35 10° NNW 23:21:59 57° ENE 23:25:19 17° SE
BREEZE-M DEB (TANK) 4.1 23:20:01 10° W 23:23:39 63° S 23:38:35 10° ESE
Cosmos 1869 4.2 23:20:05 10° NNW 23:23:39 37° W 23:25:34 22° SW
Geosat 4.4 23:22:14 11° SE 23:27:03 62° NE 23:32:02 10° NNW
ERS-2 2.0 23:24:58 10° NNE 23:28:35 84° WNW 23:30:22 28° SSW
Cosmos 1606 2.6 23:29:27 10° N 23:33:19 89° E 23:35:18 27° S
Nadezhda 3 Rocket 4.0 23:30:29 21° S 23:34:42 79° E 23:40:53 10° NNE
PSLV R/B 3.8 23:32:59 10° NNE 23:37:47 79° ESE 23:40:41 24° S
COSMOS 2406 4.0 23:32:27 10° SW 23:38:02 50° NW 23:43:40 10° NNE
Meteor 2-2 Rocket 4.5 23:35:42 10° N 23:41:41 79° ENE 23:46:14 18° SSE
Cosmos 1932 4.4 23:37:53 17° SSW 23:42:46 76° SE 23:49:09 10° NE
Nimbus 7 Rocket 4.4 23:37:01 10° NNE 23:42:58 82° ESE 23:47:07 21° SSW
SL-16 R/B 2.2 23:37:42 10° NNW 23:43:24 77° WSW 23:47:36 19° SSE
Cosmos 1758 Rocket 3.6 23:41:08 24° SSW 23:43:38 76° W 23:48:03 10° N
Meteor 2-20 Rocket 4.5 23:41:09 21° S 23:45:23 81° E 23:51:32 10° NNE
Cosmos 2221 3.2 23:46:07 10° N 23:50:21 50° ENE 23:53:34 17° SE
Cosmos 1980 Rocket 3.7 23:46:49 10° NW 23:51:07 22° WSW 23:53:57 15° SW
ALOS 2 4.3 23:49:16 15° SW 23:51:33 21° W 23:54:56 10° NW
Cosmos 1812 Rocket 4.5 23:48:03 10° NNW 23:52:11 37° W 23:54:37 21° SW
